contact:dominique.lefevre@mio.osupytheas.fr, maurice.libes@osupytheas.fr, didier.mallarino@osupytheas.fr
Project:EMSO http://www.emso-fr.org/EMSO-France
Depth: 2436.0 m
Title:EMSO Ligure Ouest : Data MII capteur MICROCAT
DateTime_Computer,Latitude,Longitude,Temperature,Conductivity,Pressure,DateTime_Instrument
DateTime_Computer,Latitude,Longitude,degC,S m-1,dbar,DateTime_Instrument
2022-11-15T00:01:03Z,42.805,6.029,13.3063,4.60105,2470.646,2022-11-15T02:03:01Z
2022-11-15T00:04:06Z,42.805,6.029,13.3062,4.60117,2470.646,2022-11-15T02:06:05Z
2022-11-15T00:07:09Z,42.805,6.029,13.3078,4.60121,2470.637,2022-11-15T02:09:08Z
2022-11-15T00:10:13Z,42.805,6.029,13.3073,4.60110,2470.67,2022-11-15T02:12:11Z
2022-11-15T00:13:16Z,42.805,6.029,13.3069,4.60151,2470.67,2022-11-15T02:15:14Z
2022-11-15T00:16:19Z,42.805,6.029,13.3046,4.60144,2470.707,2022-11-15T02:18:17Z
2022-11-15T00:19:22Z,42.805,6.029,13.3054,4.60151,2470.661,2022-11-15T02:21:20Z
2022-11-15T00:22:25Z,42.805,6.029,13.3054,4.60122,2470.646,2022-11-15T02:24:23Z
2022-11-15T00:25:28Z,42.805,6.029,13.3049,4.60132,2470.646,2022-11-15T02:27:26Z
2022-11-15T00:28:31Z,42.805,6.029,13.3044,4.60131,2470.646,2022-11-15T02:30:29Z
2022-11-15T00:31:34Z,42.805,6.029,13.3043,4.60115,2470.624,2022-11-15T02:33:32Z
2022-11-15T00:34:37Z,42.805,6.029,13.3053,4.60120,2470.67,2022-11-15T02:36:35Z
2022-11-15T00:37:40Z,42.805,6.029,13.3063,4.60122,2470.661,2022-11-15T02:39:38Z
2022-11-15T00:40:43Z,42.805,6.029,13.3031,4.60129,2470.646,2022-11-15T02:42:42Z
2022-11-15T00:43:46Z,42.805,6.029,13.3053,4.60119,2470.67,2022-11-15T02:45:45Z
2022-11-15T00:46:49Z,42.805,6.029,13.3041,4.60132,2470.624,2022-11-15T02:48:48Z
2022-11-15T00:49:53Z,42.805,6.029,13.3062,4.60133,2470.646,2022-11-15T02:51:51Z
2022-11-15T00:52:56Z,42.805,6.029,13.3045,4.60119,2470.646,2022-11-15T02:54:54Z
2022-11-15T00:55:59Z,42.805,6.029,13.3052,4.60122,2470.661,2022-11-15T02:57:57Z
2022-11-15T00:59:02Z,42.805,6.029,13.3038,4.60131,2470.614,2022-11-15T03:01:00Z
2022-11-15T01:02:05Z,42.805,6.029,13.3046,4.60132,2470.646,2022-11-15T03:04:03Z
2022-11-15T01:05:08Z,42.805,6.029,13.3054,4.60143,2470.661,2022-11-15T03:07:06Z
2022-11-15T01:08:11Z,42.805,6.029,13.3049,4.60136,2470.637,2022-11-15T03:10:09Z
2022-11-15T01:11:14Z,42.805,6.029,13.3048,4.60133,2470.624,2022-11-15T03:13:12Z
2022-11-15T01:14:17Z,42.805,6.029,13.3051,4.60114,2470.624,2022-11-15T03:16:15Z
2022-11-15T01:17:20Z,42.805,6.029,13.3053,4.60097,2470.624,2022-11-15T03:19:18Z
2022-11-15T01:20:23Z,42.805,6.029,13.3048,4.60142,2470.624,2022-11-15T03:22:21Z
2022-11-15T01:23:26Z,42.805,6.029,13.3034,4.60145,2470.6,2022-11-15T03:25:25Z
2022-11-15T01:26:30Z,42.805,6.029,13.3074,4.60125,2470.624,2022-11-15T03:28:28Z
2022-11-15T01:29:33Z,42.805,6.029,13.3061,4.60124,2470.624,2022-11-15T03:31:31Z
2022-11-15T01:32:36Z,42.805,6.029,13.3049,4.60137,2470.661,2022-11-15T03:34:34Z
2022-11-15T01:35:39Z,42.805,6.029,13.3061,4.60132,2470.624,2022-11-15T03:37:37Z
2022-11-15T01:38:42Z,42.805,6.029,13.3061,4.60116,2470.614,2022-11-15T03:40:40Z
2022-11-15T01:41:45Z,42.805,6.029,13.3042,4.60123,2470.646,2022-11-15T03:43:43Z
2022-11-15T01:44:48Z,42.805,6.029,13.3046,4.60135,2470.6,2022-11-15T03:46:46Z
2022-11-15T01:47:51Z,42.805,6.029,13.3041,4.60135,2470.6,2022-11-15T03:49:49Z
2022-11-15T01:50:54Z,42.805,6.029,13.3064,4.60119,2470.646,2022-11-15T03:52:52Z
2022-11-15T01:53:57Z,42.805,6.029,13.3048,4.60135,2470.614,2022-11-15T03:55:55Z
2022-11-15T01:57:00Z,42.805,6.029,13.3060,4.60132,2470.624,2022-11-15T03:58:58Z
2022-11-15T02:00:03Z,42.805,6.029,13.3058,4.60138,2470.6,2022-11-15T04:02:02Z
2022-11-15T02:03:06Z,42.805,6.029,13.3054,4.60140,2470.637,2022-11-15T04:05:05Z
2022-11-15T02:06:09Z,42.805,6.029,13.3061,4.60134,2470.646,2022-11-15T04:08:08Z
2022-11-15T02:09:13Z,42.805,6.029,13.3070,4.60130,2470.6,2022-11-15T04:11:11Z
2022-11-15T02:12:16Z,42.805,6.029,13.3058,4.60134,2470.637,2022-11-15T04:14:14Z
2022-11-15T02:15:19Z,42.805,6.029,13.3046,4.60125,2470.624,2022-11-15T04:17:17Z
2022-11-15T02:18:22Z,42.805,6.029,13.3078,4.60133,2470.624,2022-11-15T04:20:20Z
2022-11-15T02:21:25Z,42.805,6.029,13.3076,4.60101,2470.577,2022-11-15T04:23:23Z
2022-11-15T02:24:28Z,42.805,6.029,13.3059,4.60114,2470.591,2022-11-15T04:26:26Z
2022-11-15T02:27:31Z,42.805,6.029,13.3045,4.60123,2470.6,2022-11-15T04:29:29Z
2022-11-15T02:30:34Z,42.805,6.029,13.3055,4.60142,2470.614,2022-11-15T04:32:32Z
2022-11-15T02:33:37Z,42.805,6.029,13.3054,4.60112,2470.614,2022-11-15T04:35:35Z
2022-11-15T02:36:40Z,42.805,6.029,13.3052,4.60156,2470.637,2022-11-15T04:38:38Z
2022-11-15T02:39:43Z,42.805,6.029,13.3063,4.60170,2470.6,2022-11-15T04:41:42Z
2022-11-15T02:42:46Z,42.805,6.029,13.3051,4.60127,2470.614,2022-11-15T04:44:45Z
2022-11-15T02:45:50Z,42.805,6.029,13.3047,4.60144,2470.577,2022-11-15T04:47:48Z
2022-11-15T02:48:53Z,42.805,6.029,13.3056,4.60153,2470.624,2022-11-15T04:50:51Z
2022-11-15T02:51:56Z,42.805,6.029,13.3056,4.60130,2470.624,2022-11-15T04:53:54Z
2022-11-15T02:54:59Z,42.805,6.029,13.3058,4.60146,2470.614,2022-11-15T04:56:57Z
2022-11-15T02:58:02Z,42.805,6.029,13.3054,4.60113,2470.6,2022-11-15T05:00:00Z
2022-11-15T03:01:05Z,42.805,6.029,13.3034,4.60131,2470.614,2022-11-15T05:03:03Z
2022-11-15T03:04:08Z,42.805,6.029,13.3036,4.60135,2470.6,2022-11-15T05:06:06Z
2022-11-15T03:07:11Z,42.805,6.029,13.3063,4.60110,2470.577,2022-11-15T05:09:09Z
2022-11-15T03:10:14Z,42.805,6.029,13.3033,4.60134,2470.614,2022-11-15T05:12:12Z
2022-11-15T03:13:17Z,42.805,6.029,13.3047,4.60127,2470.6,2022-11-15T05:15:15Z
2022-11-15T03:16:20Z,42.805,6.029,13.3069,4.60125,2470.624,2022-11-15T05:18:18Z
2022-11-15T03:19:23Z,42.805,6.029,13.3046,4.60126,2470.614,2022-11-15T05:21:22Z
2022-11-15T03:22:26Z,42.805,6.029,13.3032,4.60123,2470.6,2022-11-15T05:24:25Z
2022-11-15T03:25:30Z,42.805,6.029,13.3038,4.60137,2470.591,2022-11-15T05:27:28Z
2022-11-15T03:28:33Z,42.805,6.029,13.3058,4.60120,2470.614,2022-11-15T05:30:31Z
2022-11-15T03:31:36Z,42.805,6.029,13.3046,4.60094,2470.6,2022-11-15T05:33:34Z
2022-11-15T03:34:39Z,42.805,6.029,13.3021,4.60087,2470.61,2022-11-15T05:36:37Z
2022-11-15T03:37:42Z,42.805,6.029,13.3022,4.60100,2470.6,2022-11-15T05:39:40Z
2022-11-15T03:40:45Z,42.805,6.029,13.3025,4.60098,2470.591,2022-11-15T05:42:43Z
2022-11-15T03:43:48Z,42.805,6.029,13.3022,4.60102,2470.637,2022-11-15T05:45:46Z
2022-11-15T03:46:51Z,42.805,6.029,13.3026,4.60097,2470.577,2022-11-15T05:48:49Z
2022-11-15T03:49:54Z,42.805,6.029,13.3028,4.60127,2470.614,2022-11-15T05:51:52Z
2022-11-15T03:52:57Z,42.805,6.029,13.3042,4.60107,2470.577,2022-11-15T05:54:55Z
2022-11-15T03:56:00Z,42.805,6.029,13.3031,4.60148,2470.553,2022-11-15T05:57:58Z
2022-11-15T03:59:03Z,42.805,6.029,13.3061,4.60132,2470.6,2022-11-15T06:01:02Z
2022-11-15T04:02:06Z,42.805,6.029,13.3055,4.60128,2470.591,2022-11-15T06:04:05Z
2022-11-15T04:05:09Z,42.805,6.029,13.3049,4.60114,2470.614,2022-11-15T06:07:08Z
2022-11-15T04:08:13Z,42.805,6.029,13.3046,4.60130,2470.567,2022-11-15T06:10:11Z
2022-11-15T04:11:16Z,42.805,6.029,13.3058,4.60138,2470.577,2022-11-15T06:13:14Z
2022-11-15T04:14:19Z,42.805,6.029,13.3045,4.60109,2470.577,2022-11-15T06:16:17Z
2022-11-15T04:17:22Z,42.805,6.029,13.3029,4.60114,2470.614,2022-11-15T06:19:20Z
2022-11-15T04:20:25Z,42.805,6.029,13.3034,4.60135,2470.6,2022-11-15T06:22:23Z
2022-11-15T04:23:28Z,42.805,6.029,13.3044,4.60117,2470.591,2022-11-15T06:25:26Z
2022-11-15T04:26:31Z,42.805,6.029,13.3039,4.60133,2470.624,2022-11-15T06:28:29Z
2022-11-15T04:29:34Z,42.805,6.029,13.3045,4.60137,2470.6,2022-11-15T06:31:32Z
2022-11-15T04:32:37Z,42.805,6.029,13.3054,4.60131,2470.577,2022-11-15T06:34:35Z
2022-11-15T04:35:40Z,42.805,6.029,13.3050,4.60127,2470.6,2022-11-15T06:37:38Z
2022-11-15T04:38:43Z,42.805,6.029,13.3058,4.60112,2470.614,2022-11-15T06:40:42Z
2022-11-15T04:41:46Z,42.805,6.029,13.3039,4.60135,2470.591,2022-11-15T06:43:45Z
2022-11-15T04:44:50Z,42.805,6.029,13.3055,4.60148,2470.614,2022-11-15T06:46:48Z
2022-11-15T04:47:53Z,42.805,6.029,13.3034,4.60142,2470.591,2022-11-15T06:49:51Z
2022-11-15T04:50:56Z,42.805,6.029,13.3041,4.60112,2470.591,2022-11-15T06:52:54Z
2022-11-15T04:53:59Z,42.805,6.029,13.3051,4.60132,2470.624,2022-11-15T06:55:57Z
2022-11-15T04:57:02Z,42.805,6.029,13.3061,4.60152,2470.577,2022-11-15T06:59:00Z
2022-11-15T05:00:05Z,42.805,6.029,13.3076,4.60152,2470.628,2022-11-15T07:02:03Z
2022-11-15T05:03:08Z,42.805,6.029,13.3034,4.60141,2470.624,2022-11-15T07:05:06Z
2022-11-15T05:06:11Z,42.805,6.029,13.3051,4.60126,2470.577,2022-11-15T07:08:09Z
2022-11-15T05:09:14Z,42.805,6.029,13.3054,4.60132,2470.577,2022-11-15T07:11:12Z
2022-11-15T05:12:17Z,42.805,6.029,13.3056,4.60114,2470.624,2022-11-15T07:14:15Z
2022-11-15T05:15:20Z,42.805,6.029,13.3052,4.60164,2470.614,2022-11-15T07:17:18Z
2022-11-15T05:18:23Z,42.805,6.029,13.3084,4.60163,2470.567,2022-11-15T07:20:22Z
2022-11-15T05:21:26Z,42.805,6.029,13.3062,4.60169,2470.614,2022-11-15T07:23:25Z
2022-11-15T05:24:30Z,42.805,6.029,13.3070,4.60164,2470.591,2022-11-15T07:26:28Z
2022-11-15T05:27:33Z,42.805,6.029,13.3084,4.60132,2470.614,2022-11-15T07:29:31Z
2022-11-15T05:30:36Z,42.805,6.029,13.3038,4.60141,2470.628,2022-11-15T07:32:34Z
2022-11-15T05:33:39Z,42.805,6.029,13.3054,4.60157,2470.6,2022-11-15T07:35:37Z
2022-11-15T05:36:42Z,42.805,6.029,13.3078,4.60192,2470.614,2022-11-15T07:38:40Z
2022-11-15T05:39:45Z,42.805,6.029,13.3036,4.60166,2470.591,2022-11-15T07:41:43Z
2022-11-15T05:42:48Z,42.805,6.029,13.3074,4.60200,2470.614,2022-11-15T07:44:46Z
2022-11-15T05:45:51Z,42.805,6.029,13.3048,4.60156,2470.614,2022-11-15T07:47:49Z
2022-11-15T05:48:54Z,42.805,6.029,13.3065,4.60102,2470.553,2022-11-15T07:50:52Z
2022-11-15T05:51:57Z,42.805,6.029,13.3058,4.60193,2470.6,2022-11-15T07:53:55Z
2022-11-15T05:55:00Z,42.805,6.029,13.3089,4.60129,2470.591,2022-11-15T07:56:58Z
2022-11-15T05:58:03Z,42.805,6.029,13.3058,4.60175,2470.614,2022-11-15T08:00:02Z
2022-11-15T06:01:06Z,42.805,6.029,13.3070,4.60173,2470.553,2022-11-15T08:03:05Z
2022-11-15T06:04:09Z,42.805,6.029,13.3097,4.60152,2470.591,2022-11-15T08:06:08Z
2022-11-15T06:07:13Z,42.805,6.029,13.3084,4.60152,2470.577,2022-11-15T08:09:11Z
2022-11-15T06:10:16Z,42.805,6.029,13.3093,4.60173,2470.577,2022-11-15T08:12:14Z
2022-11-15T06:13:19Z,42.805,6.029,13.3098,4.60128,2470.6,2022-11-15T08:15:17Z
2022-11-15T06:16:22Z,42.805,6.029,13.3088,4.60144,2470.591,2022-11-15T08:18:20Z
2022-11-15T06:19:25Z,42.805,6.029,13.3050,4.60149,2470.614,2022-11-15T08:21:23Z
2022-11-15T06:22:28Z,42.805,6.029,13.3077,4.60165,2470.577,2022-11-15T08:24:26Z
2022-11-15T06:25:31Z,42.805,6.029,13.3093,4.60129,2470.6,2022-11-15T08:27:29Z
2022-11-15T06:28:34Z,42.805,6.029,13.3084,4.60122,2470.577,2022-11-15T08:30:32Z
2022-11-15T06:31:37Z,42.805,6.029,13.3073,4.60115,2470.637,2022-11-15T08:33:35Z
2022-11-15T06:34:40Z,42.805,6.029,13.3069,4.60130,2470.6,2022-11-15T08:36:38Z
2022-11-15T06:37:43Z,42.805,6.029,13.3026,4.60108,2470.6,2022-11-15T08:39:42Z
2022-11-15T06:40:46Z,42.805,6.029,13.3041,4.60122,2470.637,2022-11-15T08:42:45Z
2022-11-15T06:43:50Z,42.805,6.029,13.3040,4.60099,2470.646,2022-11-15T08:45:48Z
2022-11-15T06:46:53Z,42.805,6.029,13.3036,4.60101,2470.614,2022-11-15T08:48:51Z
2022-11-15T06:49:56Z,42.805,6.029,13.3035,4.60109,2470.628,2022-11-15T08:51:54Z
2022-11-15T06:52:59Z,42.805,6.029,13.3076,4.60094,2470.614,2022-11-15T08:54:57Z
2022-11-15T06:56:02Z,42.805,6.029,13.3041,4.60122,2470.624,2022-11-15T08:58:00Z
2022-11-15T06:59:05Z,42.805,6.029,13.3053,4.60104,2470.6,2022-11-15T09:01:03Z
2022-11-15T07:02:08Z,42.805,6.029,13.3061,4.60125,2470.661,2022-11-15T09:04:06Z
2022-11-15T07:05:11Z,42.805,6.029,13.3056,4.60100,2470.614,2022-11-15T09:07:09Z
2022-11-15T07:08:14Z,42.805,6.029,13.3069,4.60178,2470.637,2022-11-15T09:10:12Z
2022-11-15T07:11:17Z,42.805,6.029,13.3088,4.60127,2470.624,2022-11-15T09:13:15Z
2022-11-15T07:14:20Z,42.805,6.029,13.3101,4.60163,2470.624,2022-11-15T09:16:18Z
2022-11-15T07:17:23Z,42.805,6.029,13.3067,4.60127,2470.614,2022-11-15T09:19:22Z
2022-11-15T07:20:26Z,42.805,6.029,13.3039,4.60104,2470.624,2022-11-15T09:22:25Z
2022-11-15T07:23:30Z,42.805,6.029,13.3056,4.60098,2470.661,2022-11-15T09:25:28Z
2022-11-15T07:26:33Z,42.805,6.029,13.3031,4.60095,2470.646,2022-11-15T09:28:31Z
2022-11-15T07:29:36Z,42.805,6.029,13.3044,4.60125,2470.614,2022-11-15T09:31:34Z
2022-11-15T07:32:39Z,42.805,6.029,13.3059,4.60103,2470.624,2022-11-15T09:34:37Z
2022-11-15T07:35:42Z,42.805,6.029,13.3063,4.60105,2470.624,2022-11-15T09:37:40Z
2022-11-15T07:38:45Z,42.805,6.029,13.3049,4.60086,2470.614,2022-11-15T09:40:43Z
2022-11-15T07:41:48Z,42.805,6.029,13.3067,4.60081,2470.637,2022-11-15T09:43:46Z
2022-11-15T07:44:51Z,42.805,6.029,13.3060,4.60079,2470.624,2022-11-15T09:46:49Z
2022-11-15T07:47:54Z,42.805,6.029,13.3043,4.60091,2470.646,2022-11-15T09:49:52Z
2022-11-15T07:50:57Z,42.805,6.029,13.3058,4.60091,2470.646,2022-11-15T09:52:55Z
2022-11-15T07:54:00Z,42.805,6.029,13.3040,4.60090,2470.67,2022-11-15T09:55:59Z
2022-11-15T07:57:03Z,42.805,6.029,13.3048,4.60097,2470.614,2022-11-15T09:59:02Z
2022-11-15T08:00:07Z,42.805,6.029,13.3046,4.60111,2470.646,2022-11-15T10:02:05Z
2022-11-15T08:03:10Z,42.805,6.029,13.3051,4.60093,2470.646,2022-11-15T10:05:08Z
2022-11-15T08:06:13Z,42.805,6.029,13.3052,4.60085,2470.67,2022-11-15T10:08:11Z
2022-11-15T08:09:16Z,42.805,6.029,13.3037,4.60097,2470.646,2022-11-15T10:11:14Z
2022-11-15T08:12:19Z,42.805,6.029,13.3055,4.60092,2470.646,2022-11-15T10:14:17Z
2022-11-15T08:15:22Z,42.805,6.029,13.3046,4.60113,2470.67,2022-11-15T10:17:20Z
2022-11-15T08:18:25Z,42.805,6.029,13.3040,4.60085,2470.646,2022-11-15T10:20:23Z
2022-11-15T08:21:28Z,42.805,6.029,13.3039,4.60110,2470.661,2022-11-15T10:23:26Z
2022-11-15T08:24:31Z,42.805,6.029,13.3043,4.60090,2470.646,2022-11-15T10:26:29Z
2022-11-15T08:27:34Z,42.805,6.029,13.3043,4.60087,2470.661,2022-11-15T10:29:32Z
2022-11-15T08:30:37Z,42.805,6.029,13.3043,4.60080,2470.646,2022-11-15T10:32:36Z
2022-11-15T08:33:40Z,42.805,6.029,13.3051,4.60086,2470.646,2022-11-15T10:35:39Z
2022-11-15T08:36:44Z,42.805,6.029,13.3041,4.60089,2470.67,2022-11-15T10:38:42Z
2022-11-15T08:39:47Z,42.805,6.029,13.3039,4.60092,2470.646,2022-11-15T10:41:45Z
2022-11-15T08:42:50Z,42.805,6.029,13.3048,4.60096,2470.646,2022-11-15T10:44:48Z
2022-11-15T08:45:53Z,42.805,6.029,13.3042,4.60088,2470.646,2022-11-15T10:47:51Z
2022-11-15T08:48:56Z,42.805,6.029,13.3052,4.60117,2470.67,2022-11-15T10:50:54Z
2022-11-15T08:51:59Z,42.805,6.029,13.3076,4.60089,2470.67,2022-11-15T10:53:57Z
2022-11-15T08:55:02Z,42.805,6.029,13.3052,4.60075,2470.693,2022-11-15T10:57:00Z
2022-11-15T08:58:05Z,42.805,6.029,13.3043,4.60110,2470.707,2022-11-15T11:00:03Z
2022-11-15T09:01:08Z,42.805,6.029,13.3044,4.60094,2470.707,2022-11-15T11:03:06Z
2022-11-15T09:04:11Z,42.805,6.029,13.3051,4.60097,2470.707,2022-11-15T11:06:09Z
2022-11-15T09:07:14Z,42.805,6.029,13.3048,4.60093,2470.693,2022-11-15T11:09:13Z
2022-11-15T09:10:17Z,42.805,6.029,13.3035,4.60100,2470.707,2022-11-15T11:12:16Z
2022-11-15T09:13:21Z,42.805,6.029,13.3045,4.60098,2470.67,2022-11-15T11:15:19Z
2022-11-15T09:16:24Z,42.805,6.029,13.3031,4.60091,2470.707,2022-11-15T11:18:22Z
2022-11-15T09:19:27Z,42.805,6.029,13.3076,4.60075,2470.684,2022-11-15T11:21:25Z
2022-11-15T09:22:30Z,42.805,6.029,13.3048,4.60102,2470.67,2022-11-15T11:24:28Z
2022-11-15T09:25:33Z,42.805,6.029,13.3046,4.60093,2470.717,2022-11-15T11:27:31Z
2022-11-15T09:28:36Z,42.805,6.029,13.3037,4.60081,2470.693,2022-11-15T11:30:34Z
2022-11-15T09:31:39Z,42.805,6.029,13.3036,4.60094,2470.67,2022-11-15T11:33:37Z
2022-11-15T09:34:42Z,42.805,6.029,13.3046,4.60108,2470.707,2022-11-15T11:36:40Z
2022-11-15T09:37:45Z,42.805,6.029,13.3046,4.60081,2470.717,2022-11-15T11:39:43Z
2022-11-15T09:40:48Z,42.805,6.029,13.3048,4.60081,2470.693,2022-11-15T11:42:46Z
2022-11-15T09:43:51Z,42.805,6.029,13.3054,4.60089,2470.717,2022-11-15T11:45:50Z
2022-11-15T09:46:54Z,42.805,6.029,13.3049,4.60088,2470.73,2022-11-15T11:48:53Z
2022-11-15T09:49:58Z,42.805,6.029,13.3045,4.60096,2470.717,2022-11-15T11:51:56Z
2022-11-15T09:53:01Z,42.805,6.029,13.3043,4.60085,2470.754,2022-11-15T11:54:59Z
2022-11-15T09:56:04Z,42.805,6.029,13.3048,4.60081,2470.717,2022-11-15T11:58:02Z
2022-11-15T09:59:07Z,42.805,6.029,13.3041,4.60082,2470.717,2022-11-15T12:01:05Z
2022-11-15T10:02:10Z,42.805,6.029,13.3034,4.60083,2470.693,2022-11-15T12:04:08Z
2022-11-15T10:05:13Z,42.805,6.029,13.3031,4.60087,2470.754,2022-11-15T12:07:11Z
2022-11-15T10:08:16Z,42.805,6.029,13.3034,4.60074,2470.74,2022-11-15T12:10:14Z
2022-11-15T10:11:19Z,42.805,6.029,13.3047,4.60098,2470.73,2022-11-15T12:13:17Z
2022-11-15T10:14:22Z,42.805,6.029,13.3043,4.60095,2470.763,2022-11-15T12:16:20Z
2022-11-15T10:17:25Z,42.805,6.029,13.3034,4.60080,2470.74,2022-11-15T12:19:23Z
2022-11-15T10:20:28Z,42.805,6.029,13.3047,4.60087,2470.754,2022-11-15T12:22:27Z
2022-11-15T10:23:31Z,42.805,6.029,13.3043,4.60081,2470.717,2022-11-15T12:25:30Z
2022-11-15T10:26:35Z,42.805,6.029,13.3051,4.60083,2470.74,2022-11-15T12:28:33Z
2022-11-15T10:29:38Z,42.805,6.029,13.3045,4.60095,2470.726,2022-11-15T12:31:36Z
2022-11-15T10:32:41Z,42.805,6.029,13.3048,4.60086,2470.717,2022-11-15T12:34:39Z
2022-11-15T10:35:44Z,42.805,6.029,13.3042,4.60085,2470.73,2022-11-15T12:37:42Z
2022-11-15T10:38:47Z,42.805,6.029,13.3042,4.60099,2470.717,2022-11-15T12:40:45Z
2022-11-15T10:41:50Z,42.805,6.029,13.3054,4.60093,2470.74,2022-11-15T12:43:48Z
2022-11-15T10:44:53Z,42.805,6.029,13.3045,4.60075,2470.717,2022-11-15T12:46:51Z
2022-11-15T10:47:56Z,42.805,6.029,13.3056,4.60084,2470.763,2022-11-15T12:49:54Z
2022-11-15T10:50:59Z,42.805,6.029,13.3046,4.60091,2470.74,2022-11-15T12:52:57Z
2022-11-15T10:54:02Z,42.805,6.029,13.3052,4.60118,2470.777,2022-11-15T12:56:00Z
2022-11-15T10:57:05Z,42.805,6.029,13.3054,4.60103,2470.754,2022-11-15T12:59:04Z
2022-11-15T11:00:08Z,42.805,6.029,13.3057,4.60088,2470.74,2022-11-15T13:02:07Z
2022-11-15T11:03:12Z,42.805,6.029,13.3045,4.60093,2470.717,2022-11-15T13:05:10Z
2022-11-15T11:06:15Z,42.805,6.029,13.3062,4.60105,2470.73,2022-11-15T13:08:13Z
2022-11-15T11:09:18Z,42.805,6.029,13.3061,4.60084,2470.754,2022-11-15T13:11:16Z
2022-11-15T11:12:21Z,42.805,6.029,13.3062,4.60090,2470.717,2022-11-15T13:14:19Z
2022-11-15T11:15:24Z,42.805,6.029,13.3051,4.60089,2470.73,2022-11-15T13:17:22Z
2022-11-15T11:18:27Z,42.805,6.029,13.3041,4.60085,2470.717,2022-11-15T13:20:25Z
2022-11-15T11:21:30Z,42.805,6.029,13.3042,4.60081,2470.754,2022-11-15T13:23:28Z
2022-11-15T11:24:33Z,42.805,6.029,13.3053,4.60093,2470.717,2022-11-15T13:26:31Z
2022-11-15T11:27:36Z,42.805,6.029,13.3046,4.60090,2470.754,2022-11-15T13:29:34Z
2022-11-15T11:30:39Z,42.805,6.029,13.3044,4.60091,2470.73,2022-11-15T13:32:37Z
2022-11-15T11:33:42Z,42.805,6.029,13.3052,4.60076,2470.754,2022-11-15T13:35:41Z
2022-11-15T11:36:45Z,42.805,6.029,13.3042,4.60078,2470.754,2022-11-15T13:38:44Z
2022-11-15T11:39:49Z,42.805,6.029,13.3043,4.60094,2470.754,2022-11-15T13:41:47Z
2022-11-15T11:42:52Z,42.805,6.029,13.3047,4.60076,2470.73,2022-11-15T13:44:50Z
2022-11-15T11:45:55Z,42.805,6.029,13.3040,4.60110,2470.777,2022-11-15T13:47:53Z
2022-11-15T11:48:58Z,42.805,6.029,13.3045,4.60099,2470.74,2022-11-15T13:50:56Z
2022-11-15T11:52:01Z,42.805,6.029,13.3067,4.60081,2470.754,2022-11-15T13:53:59Z
2022-11-15T11:55:04Z,42.805,6.029,13.3066,4.60081,2470.754,2022-11-15T13:57:02Z
2022-11-15T11:58:07Z,42.805,6.029,13.3052,4.60099,2470.717,2022-11-15T14:00:05Z
2022-11-15T12:01:10Z,42.805,6.029,13.3068,4.60081,2470.74,2022-11-15T14:03:08Z
2022-11-15T12:04:13Z,42.805,6.029,13.3043,4.60089,2470.73,2022-11-15T14:06:11Z
2022-11-15T12:07:16Z,42.805,6.029,13.3055,4.60093,2470.693,2022-11-15T14:09:14Z
2022-11-15T12:10:19Z,42.805,6.029,13.3056,4.60074,2470.74,2022-11-15T14:12:18Z
2022-11-15T12:13:22Z,42.805,6.029,13.3063,4.60092,2470.754,2022-11-15T14:15:21Z
2022-11-15T12:16:26Z,42.805,6.029,13.3052,4.60084,2470.754,2022-11-15T14:18:24Z
2022-11-15T12:19:29Z,42.805,6.029,13.3053,4.60087,2470.74,2022-11-15T14:21:27Z
2022-11-15T12:22:32Z,42.805,6.029,13.3056,4.60081,2470.754,2022-11-15T14:24:30Z
2022-11-15T12:25:35Z,42.805,6.029,13.3036,4.60081,2470.73,2022-11-15T14:27:33Z
2022-11-15T12:28:38Z,42.805,6.029,13.3053,4.60085,2470.73,2022-11-15T14:30:36Z
2022-11-15T12:31:41Z,42.805,6.029,13.3056,4.60079,2470.787,2022-11-15T14:33:39Z
2022-11-15T12:34:44Z,42.805,6.029,13.3051,4.60085,2470.754,2022-11-15T14:36:42Z
2022-11-15T12:37:47Z,42.805,6.029,13.3061,4.60091,2470.74,2022-11-15T14:39:45Z
2022-11-15T12:40:50Z,42.805,6.029,13.3052,4.60087,2470.679,2022-11-15T14:42:48Z
2022-11-15T12:43:53Z,42.805,6.029,13.3052,4.60090,2470.73,2022-11-15T14:45:51Z
2022-11-15T12:46:56Z,42.805,6.029,13.3038,4.60080,2470.73,2022-11-15T14:48:55Z
2022-11-15T12:49:59Z,42.805,6.029,13.3040,4.60102,2470.707,2022-11-15T14:51:58Z
2022-11-15T12:53:03Z,42.805,6.029,13.3056,4.60091,2470.73,2022-11-15T14:55:01Z
2022-11-15T12:56:06Z,42.805,6.029,13.3051,4.60096,2470.717,2022-11-15T14:58:04Z
2022-11-15T12:59:09Z,42.805,6.029,13.3060,4.60097,2470.717,2022-11-15T15:01:07Z
2022-11-15T13:02:12Z,42.805,6.029,13.3060,4.60086,2470.754,2022-11-15T15:04:10Z
2022-11-15T13:05:15Z,42.805,6.029,13.3059,4.60093,2470.74,2022-11-15T15:07:13Z
2022-11-15T13:08:18Z,42.805,6.029,13.3049,4.60087,2470.717,2022-11-15T15:10:16Z
2022-11-15T13:11:21Z,42.805,6.029,13.3055,4.60081,2470.717,2022-11-15T15:13:19Z
2022-11-15T13:14:24Z,42.805,6.029,13.3049,4.60092,2470.74,2022-11-15T15:16:22Z
2022-11-15T13:17:27Z,42.805,6.029,13.3061,4.60082,2470.717,2022-11-15T15:19:25Z
2022-11-15T13:20:30Z,42.805,6.029,13.3057,4.60095,2470.74,2022-11-15T15:22:28Z
2022-11-15T13:23:33Z,42.805,6.029,13.3056,4.60089,2470.73,2022-11-15T15:25:32Z
2022-11-15T13:26:36Z,42.805,6.029,13.3063,4.60089,2470.74,2022-11-15T15:28:35Z
2022-11-15T13:29:40Z,42.805,6.029,13.3048,4.60089,2470.693,2022-11-15T15:31:38Z
2022-11-15T13:32:43Z,42.805,6.029,13.3055,4.60076,2470.717,2022-11-15T15:34:41Z
2022-11-15T13:35:46Z,42.805,6.029,13.3046,4.60101,2470.74,2022-11-15T15:37:44Z
2022-11-15T13:38:49Z,42.805,6.029,13.3041,4.60104,2470.73,2022-11-15T15:40:47Z
2022-11-15T13:41:52Z,42.805,6.029,13.3043,4.60093,2470.717,2022-11-15T15:43:50Z
2022-11-15T13:44:55Z,42.805,6.029,13.3063,4.60092,2470.693,2022-11-15T15:46:53Z
2022-11-15T13:47:58Z,42.805,6.029,13.3063,4.60080,2470.74,2022-11-15T15:49:56Z
2022-11-15T13:51:01Z,42.805,6.029,13.3059,4.60089,2470.73,2022-11-15T15:52:59Z
2022-11-15T13:54:04Z,42.805,6.029,13.3056,4.60084,2470.693,2022-11-15T15:56:02Z
2022-11-15T13:57:07Z,42.805,6.029,13.3054,4.60087,2470.717,2022-11-15T15:59:05Z
2022-11-15T14:00:10Z,42.805,6.029,13.3052,4.60097,2470.684,2022-11-15T16:02:09Z
2022-11-15T14:03:13Z,42.805,6.029,13.3072,4.60102,2470.693,2022-11-15T16:05:12Z
2022-11-15T14:06:17Z,42.805,6.029,13.3076,4.60102,2470.717,2022-11-15T16:08:15Z
2022-11-15T14:09:20Z,42.805,6.029,13.3069,4.60096,2470.707,2022-11-15T16:11:18Z
2022-11-15T14:12:23Z,42.805,6.029,13.3062,4.60099,2470.707,2022-11-15T16:14:21Z
2022-11-15T14:15:26Z,42.805,6.029,13.3056,4.60093,2470.707,2022-11-15T16:17:24Z
2022-11-15T14:18:29Z,42.805,6.029,13.3077,4.60100,2470.693,2022-11-15T16:20:27Z
2022-11-15T14:21:32Z,42.805,6.029,13.3082,4.60097,2470.707,2022-11-15T16:23:30Z
2022-11-15T14:24:35Z,42.805,6.029,13.3058,4.60105,2470.693,2022-11-15T16:26:33Z
2022-11-15T14:27:38Z,42.805,6.029,13.3067,4.60096,2470.707,2022-11-15T16:29:36Z
2022-11-15T14:30:41Z,42.805,6.029,13.3060,4.60101,2470.73,2022-11-15T16:32:39Z
2022-11-15T14:33:44Z,42.805,6.029,13.3070,4.60086,2470.707,2022-11-15T16:35:42Z
2022-11-15T14:36:47Z,42.805,6.029,13.3060,4.60104,2470.707,2022-11-15T16:38:46Z
2022-11-15T14:39:50Z,42.805,6.029,13.3069,4.60097,2470.693,2022-11-15T16:41:49Z
2022-11-15T14:42:54Z,42.805,6.029,13.3067,4.60085,2470.707,2022-11-15T16:44:52Z
2022-11-15T14:45:57Z,42.805,6.029,13.3069,4.60088,2470.707,2022-11-15T16:47:55Z
2022-11-15T14:49:00Z,42.805,6.029,13.3066,4.60087,2470.67,2022-11-15T16:50:58Z
2022-11-15T14:52:03Z,42.805,6.029,13.3060,4.60104,2470.693,2022-11-15T16:54:01Z
2022-11-15T14:55:06Z,42.805,6.029,13.3056,4.60096,2470.73,2022-11-15T16:57:04Z
2022-11-15T14:58:09Z,42.805,6.029,13.3068,4.60094,2470.67,2022-11-15T17:00:07Z
2022-11-15T15:01:12Z,42.805,6.029,13.3069,4.60095,2470.67,2022-11-15T17:03:10Z